Regional Weather Roundup
Issued by NWS

Home | Current Version | Previous Version | Graphics & Text | Print | Product List | Glossary On
Versions: 1 2 3 4 5 6 7 8 9 10 11 12 13 14 15 16 17 18 19 20 21 22 23 24 25 26 27
000
ASUS45 KCYS 191410
RWRWY

WYOMING REGIONAL WEATHER ROUNDUP
NATIONAL WEATHER SERVICE CHEYENNE WY
700 AM MST FRI JAN 19 2018

NOTE:  "FAIR" INDICATES FEW OR NO CLOUDS BELOW 12,000 FEET
WITH NO SIGNIFICANT WEATHER AND/OR OBSTRUCTIONS TO VISIBILITY.

WYZ001-191500-
YELLOWSTONE NATIONAL PARK

CITY           SKY/WX    TMP DP  RH WIND       PRES   REMARKS
LK YELLOWSTONE   N/A     29  27  92 W6        29.72S WCI  23
W YELLOWSTONE  NOT AVBL

$$
WYZ002>013-054>058-071-098>099-191500-
NORTHERN WYOMING

CITY           SKY/WX    TMP DP  RH WIND       PRES   REMARKS
JACKSON        CLOUDY    39  29  67 SW21      29.71S WCI  29
CODY           FLURRIES  32  31  96 NE7       29.70R WCI  26
GREYBULL       FAIR      32  27  81 NW7       29.65F WCI  26
WORLAND        FAIR      31  26  82 N5        29.66R WCI  26
SHERIDAN       CLOUDY    37  33  85 W9        29.72S WCI  30
BUFFALO        MOCLDY    35  29  78 N10       29.71R WCI  27
GILLETTE       FAIR      35  28  75 NW14      29.69R WCI  26
HULETT         FAIR      37  28  70 NW6       29.66S WCI  33
NEWCASTLE      FAIR      41  18  38 SE6       29.68S

$$
WYZ014>020-022>026-101>103-191500-
CENTRAL WYOMING

CITY           SKY/WX    TMP DP  RH WIND       PRES   REMARKS
BIG PINEY      FAIR      20  17  88 E6        29.77F WCI  12
PINEDALE       FAIR      23  19  86 CALM      29.80S
DUBOIS         PTSUNNY   37  23  56 W13G24    29.68S WCI  29
LANDER         FAIR      45  27  49 SW9       29.67S
RIVERTON       FAIR      34  21  59 SW10      29.68F WCI  26
CASPER         FAIR      41  19  41 SW29G41   29.70S
DOUGLAS        FAIR      44  20  38 NE6       29.71F

$$
WYZ021-027>030-104>119-191500-
SOUTHERN WYOMING

CITY           SKY/WX    TMP DP  RH WIND       PRES   REMARKS
EVANSTON       FAIR      40  28  62 SW21      29.81S WCI  30
FORT BRIDGER   FAIR      41  27  58 SW7       29.83S
ROCK SPRINGS   FAIR      32  18  56 SE10      29.81F WCI  24
DIXON            N/A     40  11  29 SW7       29.96S
RAWLINS        LGT RAIN  41  16  36 SW24G36   29.81R
SARATOGA       FAIR      43  18  36 S16G30    29.84F
LARAMIE        FAIR      41  16  36 SW22      29.82F
CHEYENNE       FAIR      45  19  35 W14       29.80S
TORRINGTON     FAIR      38  26  62 SE3       29.72S

$$




USA.gov is the U.S. government's official web portal to all federal, state and local government web resources and services.